contact:dominique.lefevre@mio.osupytheas.fr, maurice.libes@osupytheas.fr, didier.mallarino@osupytheas.fr
Project:EMSO http://www.emso-fr.org/EMSO-France
Depth: 2436.0 m
Title:EMSO Ligure Ouest : Data MII capteur CSTAR
DateTime,Latitude,Longitude,Instrument_Serial,Reference_Counts,Signal_Counts,Corrected_Signal_raw_counts,Calculated_Beam_c_inverse_meters,Internal_thermistor_counts
DateTime,Latitude,Longitude,Instrument_Serial,Reference_Counts,Signal_Counts,Corrected_Signal_raw_counts,Calculated_Beam_c_inverse_meters,Internal_thermistor_counts
2019-08-04T00:00:14,42.805,6.029,CST-1368DR,8427,11760,15400,0.056,551
2019-08-04T00:03:16,42.805,6.029,CST-1368DR,8427,11784,15433,0.047,551
2019-08-04T00:06:17,42.805,6.029,CST-1368DR,8427,11786,15435,0.047,551
2019-08-04T00:09:19,42.805,6.029,CST-1368DR,8427,11787,15436,0.046,551
2019-08-04T00:12:21,42.805,6.029,CST-1368DR,8427,11787,15436,0.046,551
2019-08-04T00:15:23,42.805,6.029,CST-1368DR,8427,11785,15433,0.047,551
2019-08-04T00:18:25,42.805,6.029,CST-1368DR,8427,11786,15435,0.047,551
2019-08-04T00:21:26,42.805,6.029,CST-1368DR,8427,11786,15435,0.047,551
2019-08-04T00:24:28,42.805,6.029,CST-1368DR,8427,11787,15436,0.046,551
2019-08-04T00:27:31,42.805,6.029,CST-1368DR,8427,11783,15431,0.048,551
2019-08-04T00:30:33,42.805,6.029,CST-1368DR,8427,11787,15436,0.046,551
2019-08-04T00:33:35,42.805,6.029,CST-1368DR,8427,11787,15436,0.046,551
2019-08-04T00:36:36,42.805,6.029,CST-1368DR,8427,11786,15435,0.047,551
2019-08-04T00:39:38,42.805,6.029,CST-1368DR,8427,11785,15434,0.047,551
2019-08-04T00:42:40,42.805,6.029,CST-1368DR,8427,11786,15435,0.047,550
2019-08-04T00:45:42,42.805,6.029,CST-1368DR,8427,11784,15432,0.047,551
2019-08-04T00:48:44,42.805,6.029,CST-1368DR,8427,11781,15428,0.048,551
2019-08-04T00:51:45,42.805,6.029,CST-1368DR,8427,11786,15434,0.047,550
2019-08-04T00:54:47,42.805,6.029,CST-1368DR,8427,11785,15433,0.047,551
2019-08-04T00:57:49,42.805,6.029,CST-1368DR,8427,11787,15436,0.046,551
2019-08-04T01:00:51,42.805,6.029,CST-1368DR,8427,11786,15435,0.047,551
2019-08-04T01:03:53,42.805,6.029,CST-1368DR,8427,11787,15436,0.046,551
2019-08-04T01:06:55,42.805,6.029,CST-1368DR,8427,11786,15435,0.047,551
2019-08-04T01:09:56,42.805,6.029,CST-1368DR,8427,11787,15436,0.046,550
2019-08-04T01:12:58,42.805,6.029,CST-1368DR,8427,11787,15436,0.046,551
2019-08-04T01:16:00,42.805,6.029,CST-1368DR,8426,11786,15436,0.046,551
2019-08-04T01:19:02,42.805,6.029,CST-1368DR,8426,11763,15406,0.054,551
2019-08-04T01:22:04,42.805,6.029,CST-1368DR,8426,11787,15438,0.046,551
2019-08-04T01:25:05,42.805,6.029,CST-1368DR,8426,11786,15437,0.046,551
2019-08-04T01:28:07,42.805,6.029,CST-1368DR,8426,11787,15438,0.046,551
2019-08-04T01:31:09,42.805,6.029,CST-1368DR,8426,11786,15436,0.046,551
2019-08-04T01:34:11,42.805,6.029,CST-1368DR,8426,11787,15437,0.046,551
2019-08-04T01:37:13,42.805,6.029,CST-1368DR,8426,11786,15436,0.046,551
2019-08-04T01:40:14,42.805,6.029,CST-1368DR,8426,11787,15437,0.046,551
2019-08-04T01:43:16,42.805,6.029,CST-1368DR,8426,11787,15437,0.046,550
2019-08-04T01:46:18,42.805,6.029,CST-1368DR,8426,11783,15432,0.047,551
2019-08-04T01:49:20,42.805,6.029,CST-1368DR,8426,11784,15434,0.047,551
2019-08-04T01:52:22,42.805,6.029,CST-1368DR,8426,11787,15438,0.046,551
2019-08-04T01:55:24,42.805,6.029,CST-1368DR,8426,11775,15421,0.050,551
2019-08-04T01:58:25,42.805,6.029,CST-1368DR,8426,11786,15436,0.046,551
2019-08-04T02:01:27,42.805,6.029,CST-1368DR,8426,11781,15429,0.048,551
2019-08-04T02:04:29,42.805,6.029,CST-1368DR,8426,11786,15437,0.046,551
2019-08-04T02:07:31,42.805,6.029,CST-1368DR,8426,11784,15434,0.047,551
2019-08-04T02:10:33,42.805,6.029,CST-1368DR,8426,11785,15436,0.046,551
2019-08-04T02:13:35,42.805,6.029,CST-1368DR,8426,11783,15432,0.047,551
2019-08-04T02:16:36,42.805,6.029,CST-1368DR,8426,11786,15436,0.046,551
2019-08-04T02:19:38,42.805,6.029,CST-1368DR,8426,11784,15434,0.047,551
2019-08-04T02:22:40,42.805,6.029,CST-1368DR,8426,11781,15429,0.048,551
2019-08-04T02:25:42,42.805,6.029,CST-1368DR,8426,11787,15437,0.046,551
2019-08-04T02:28:44,42.805,6.029,CST-1368DR,8426,11786,15437,0.046,551
2019-08-04T02:31:45,42.805,6.029,CST-1368DR,8426,11787,15437,0.046,551
2019-08-04T02:34:47,42.805,6.029,CST-1368DR,8426,11778,15426,0.049,551
2019-08-04T02:37:49,42.805,6.029,CST-1368DR,8426,11785,15436,0.046,551
2019-08-04T02:40:51,42.805,6.029,CST-1368DR,8426,11785,15435,0.047,551
2019-08-04T02:43:53,42.805,6.029,CST-1368DR,8426,11781,15430,0.048,551
2019-08-04T02:46:54,42.805,6.029,CST-1368DR,8426,11785,15435,0.047,551
2019-08-04T02:49:56,42.805,6.029,CST-1368DR,8426,11780,15428,0.048,551
2019-08-04T02:52:58,42.805,6.029,CST-1368DR,8426,11784,15434,0.047,551
2019-08-04T02:56:00,42.805,6.029,CST-1368DR,8426,11786,15437,0.046,551
2019-08-04T02:59:02,42.805,6.029,CST-1368DR,8426,11785,15435,0.047,551
2019-08-04T03:02:04,42.805,6.029,CST-1368DR,8425,11781,15432,0.047,551
2019-08-04T03:05:05,42.805,6.029,CST-1368DR,8425,11784,15436,0.046,550
2019-08-04T03:08:07,42.805,6.029,CST-1368DR,8426,11786,15437,0.046,551
2019-08-04T03:11:09,42.805,6.029,CST-1368DR,8426,11786,15437,0.046,551
2019-08-04T03:14:11,42.805,6.029,CST-1368DR,8426,11785,15435,0.047,551
2019-08-04T03:17:13,42.805,6.029,CST-1368DR,8426,11785,15436,0.046,551
2019-08-04T03:20:15,42.805,6.029,CST-1368DR,8426,11786,15436,0.046,551
2019-08-04T03:30:07,42.805,6.029,CST-1368DR,8425,11780,15431,0.048,551
2019-08-04T03:33:09,42.805,6.029,CST-1368DR,8426,11786,15436,0.046,551
2019-08-04T03:36:11,42.805,6.029,CST-1368DR,8426,11783,15433,0.047,551
2019-08-04T03:39:13,42.805,6.029,CST-1368DR,8426,11785,15436,0.046,551
2019-08-04T03:42:14,42.805,6.029,CST-1368DR,8426,11787,15438,0.046,551
2019-08-04T03:45:16,42.805,6.029,CST-1368DR,8425,11784,15435,0.047,551
2019-08-04T03:48:18,42.805,6.029,CST-1368DR,8426,11784,15434,0.047,551
2019-08-04T03:51:20,42.805,6.029,CST-1368DR,8425,11786,15439,0.046,551
2019-08-04T03:54:22,42.805,6.029,CST-1368DR,8426,11783,15432,0.047,551
2019-08-04T03:57:24,42.805,6.029,CST-1368DR,8426,11785,15436,0.046,551
2019-08-04T04:00:25,42.805,6.029,CST-1368DR,8426,11785,15436,0.046,550
2019-08-04T04:03:27,42.805,6.029,CST-1368DR,8426,11783,15433,0.047,551
2019-08-04T04:06:29,42.805,6.029,CST-1368DR,8425,11785,15437,0.046,551
2019-08-04T04:09:31,42.805,6.029,CST-1368DR,8425,11785,15436,0.046,550
2019-08-04T04:12:33,42.805,6.029,CST-1368DR,8425,11786,15438,0.046,551
2019-08-04T04:15:35,42.805,6.029,CST-1368DR,8425,11785,15437,0.046,550
2019-08-04T04:18:37,42.805,6.029,CST-1368DR,8425,11785,15437,0.046,551
2019-08-04T04:21:38,42.805,6.029,CST-1368DR,8425,11786,15438,0.046,551
2019-08-04T04:24:40,42.805,6.029,CST-1368DR,8425,11784,15435,0.047,551
2019-08-04T04:27:42,42.805,6.029,CST-1368DR,8425,11781,15432,0.047,550
2019-08-04T04:35:06,42.805,6.029,CST-1368DR,8425,11785,15436,0.046,551
2019-08-04T04:38:08,42.805,6.029,CST-1368DR,8425,11786,15438,0.046,551
2019-08-04T04:41:10,42.805,6.029,CST-1368DR,8425,11782,15433,0.047,551
2019-08-04T04:44:11,42.805,6.029,CST-1368DR,8425,11785,15436,0.046,550
2019-08-04T04:47:13,42.805,6.029,CST-1368DR,8425,11783,15435,0.047,551
2019-08-04T04:50:15,42.805,6.029,CST-1368DR,8425,11785,15437,0.046,551
2019-08-04T04:53:17,42.805,6.029,CST-1368DR,8425,11784,15436,0.046,551
2019-08-04T04:56:19,42.805,6.029,CST-1368DR,8425,11783,15434,0.047,551
2019-08-04T04:59:21,42.805,6.029,CST-1368DR,8425,11783,15434,0.047,551
2019-08-04T05:02:23,42.805,6.029,CST-1368DR,8425,11783,15434,0.047,551
2019-08-04T05:05:24,42.805,6.029,CST-1368DR,8425,11784,15435,0.047,551
2019-08-04T05:08:26,42.805,6.029,CST-1368DR,8425,11783,15435,0.047,551
2019-08-04T05:11:28,42.805,6.029,CST-1368DR,8425,11784,15436,0.046,550
2019-08-04T05:14:30,42.805,6.029,CST-1368DR,8425,11781,15431,0.048,550
2019-08-04T05:17:32,42.805,6.029,CST-1368DR,8425,11783,15434,0.047,550
2019-08-04T05:20:33,42.805,6.029,CST-1368DR,8425,11785,15437,0.046,551
2019-08-04T05:23:35,42.805,6.029,CST-1368DR,8425,11785,15437,0.046,551
2019-08-04T05:26:37,42.805,6.029,CST-1368DR,8425,11777,15426,0.049,551
2019-08-04T05:29:39,42.805,6.029,CST-1368DR,8425,11783,15434,0.047,551
2019-08-04T05:32:41,42.805,6.029,CST-1368DR,8425,11783,15434,0.047,551
2019-08-04T05:35:43,42.805,6.029,CST-1368DR,8425,11782,15433,0.047,551
2019-08-04T05:38:44,42.805,6.029,CST-1368DR,8425,11783,15434,0.047,550
2019-08-04T05:41:46,42.805,6.029,CST-1368DR,8425,11782,15433,0.047,550
2019-08-04T05:44:48,42.805,6.029,CST-1368DR,8425,11783,15435,0.047,551
2019-08-04T05:47:50,42.805,6.029,CST-1368DR,8425,11783,15435,0.047,551
2019-08-04T05:50:51,42.805,6.029,CST-1368DR,8425,11784,15436,0.046,551
2019-08-04T05:53:53,42.805,6.029,CST-1368DR,8425,11785,15437,0.046,551
2019-08-04T05:56:55,42.805,6.029,CST-1368DR,8425,11784,15435,0.047,551
2019-08-04T05:59:57,42.805,6.029,CST-1368DR,8425,11785,15437,0.046,551
2019-08-04T06:02:59,42.805,6.029,CST-1368DR,8425,11780,15431,0.048,550
2019-08-04T06:06:00,42.805,6.029,CST-1368DR,8425,11783,15434,0.047,551
2019-08-04T06:09:02,42.805,6.029,CST-1368DR,8425,11784,15435,0.047,550
2019-08-04T06:12:04,42.805,6.029,CST-1368DR,8425,11783,15434,0.047,551
2019-08-04T06:15:06,42.805,6.029,CST-1368DR,8425,11780,15430,0.048,550
2019-08-04T06:18:08,42.805,6.029,CST-1368DR,8425,11783,15435,0.047,551
2019-08-04T06:21:10,42.805,6.029,CST-1368DR,8425,11785,15436,0.046,551
2019-08-04T06:24:12,42.805,6.029,CST-1368DR,8424,11783,15436,0.046,551
2019-08-04T06:27:13,42.805,6.029,CST-1368DR,8425,11784,15435,0.047,551
2019-08-04T06:30:15,42.805,6.029,CST-1368DR,8425,11784,15436,0.046,551
2019-08-04T06:33:17,42.805,6.029,CST-1368DR,8425,11784,15436,0.046,551
2019-08-04T06:36:19,42.805,6.029,CST-1368DR,8424,11784,15437,0.046,551
2019-08-04T06:39:21,42.805,6.029,CST-1368DR,8424,11781,15434,0.047,551
2019-08-04T06:42:22,42.805,6.029,CST-1368DR,8424,11781,15434,0.047,551
2019-08-04T06:45:24,42.805,6.029,CST-1368DR,8424,11783,15436,0.046,551
2019-08-04T06:48:26,42.805,6.029,CST-1368DR,8424,11783,15436,0.046,551
2019-08-04T06:51:28,42.805,6.029,CST-1368DR,8424,11779,15430,0.048,551
2019-08-04T06:54:30,42.805,6.029,CST-1368DR,8424,11782,15435,0.047,551
2019-08-04T06:57:32,42.805,6.029,CST-1368DR,8424,11783,15436,0.046,551
2019-08-04T07:00:34,42.805,6.029,CST-1368DR,8424,11783,15436,0.046,551
2019-08-04T07:03:36,42.805,6.029,CST-1368DR,8424,11782,15435,0.047,551
2019-08-04T07:06:37,42.805,6.029,CST-1368DR,8424,11780,15432,0.047,551
2019-08-04T07:09:39,42.805,6.029,CST-1368DR,8424,11784,15437,0.046,551
2019-08-04T07:12:41,42.805,6.029,CST-1368DR,8424,11783,15436,0.046,551
2019-08-04T07:15:43,42.805,6.029,CST-1368DR,8424,11782,15435,0.047,551
2019-08-04T07:18:44,42.805,6.029,CST-1368DR,8424,11783,15435,0.047,551
2019-08-04T07:21:46,42.805,6.029,CST-1368DR,8424,11782,15434,0.047,551
2019-08-04T07:24:48,42.805,6.029,CST-1368DR,8424,11780,15432,0.047,551
2019-08-04T07:27:50,42.805,6.029,CST-1368DR,8424,11780,15432,0.047,551
2019-08-04T07:30:51,42.805,6.029,CST-1368DR,8424,11783,15436,0.046,551
2019-08-04T07:33:53,42.805,6.029,CST-1368DR,8424,11784,15437,0.046,551
2019-08-04T07:36:55,42.805,6.029,CST-1368DR,8424,11782,15435,0.047,551
2019-08-04T07:39:57,42.805,6.029,CST-1368DR,8424,11780,15432,0.047,551
2019-08-04T07:42:59,42.805,6.029,CST-1368DR,8424,11778,15429,0.048,551
2019-08-04T07:46:01,42.805,6.029,CST-1368DR,8424,11780,15432,0.047,551
2019-08-04T07:49:02,42.805,6.029,CST-1368DR,8424,11784,15437,0.046,551
2019-08-04T07:52:04,42.805,6.029,CST-1368DR,8424,11779,15431,0.048,551
2019-08-04T07:55:06,42.805,6.029,CST-1368DR,8424,11773,15422,0.050,551
2019-08-04T07:58:08,42.805,6.029,CST-1368DR,8424,11772,15421,0.050,550
2019-08-04T08:01:10,42.805,6.029,CST-1368DR,8424,11780,15431,0.048,551
2019-08-04T08:04:11,42.805,6.029,CST-1368DR,8424,11780,15432,0.047,551
2019-08-04T08:07:13,42.805,6.029,CST-1368DR,8424,11781,15433,0.047,551
2019-08-04T08:10:15,42.805,6.029,CST-1368DR,8424,11783,15435,0.047,550
2019-08-04T08:13:17,42.805,6.029,CST-1368DR,8424,11783,15435,0.047,551
2019-08-04T08:16:19,42.805,6.029,CST-1368DR,8424,11780,15432,0.047,551
2019-08-04T08:19:20,42.805,6.029,CST-1368DR,8424,11782,15435,0.047,551
2019-08-04T08:22:22,42.805,6.029,CST-1368DR,8424,11782,15434,0.047,551
2019-08-04T08:25:24,42.805,6.029,CST-1368DR,8424,11782,15435,0.047,551
2019-08-04T08:28:26,42.805,6.029,CST-1368DR,8423,11781,15434,0.047,551
2019-08-04T08:31:28,42.805,6.029,CST-1368DR,8423,11777,15429,0.048,550
2019-08-04T08:34:30,42.805,6.029,CST-1368DR,8423,11782,15436,0.046,551
2019-08-04T08:37:32,42.805,6.029,CST-1368DR,8424,11783,15436,0.046,551
2019-08-04T08:40:33,42.805,6.029,CST-1368DR,8423,11782,15437,0.046,551
2019-08-04T08:43:35,42.805,6.029,CST-1368DR,8423,11782,15436,0.046,551
2019-08-04T08:46:37,42.805,6.029,CST-1368DR,8423,11783,15438,0.046,551
2019-08-04T08:49:39,42.805,6.029,CST-1368DR,8423,11777,15430,0.048,551
2019-08-04T08:52:41,42.805,6.029,CST-1368DR,8423,11784,15438,0.046,551
2019-08-04T08:55:43,42.805,6.029,CST-1368DR,8423,11780,15434,0.047,551
2019-08-04T08:58:45,42.805,6.029,CST-1368DR,8423,11780,15434,0.047,551
2019-08-04T09:01:46,42.805,6.029,CST-1368DR,8423,11782,15437,0.046,551
2019-08-04T09:04:48,42.805,6.029,CST-1368DR,8423,11782,15436,0.046,551
2019-08-04T09:07:50,42.805,6.029,CST-1368DR,8423,11779,15432,0.047,551
2019-08-04T09:10:52,42.805,6.029,CST-1368DR,8423,11780,15434,0.047,551
2019-08-04T09:13:54,42.805,6.029,CST-1368DR,8423,11780,15433,0.047,551
2019-08-04T09:16:55,42.805,6.029,CST-1368DR,8423,11781,15435,0.047,551
2019-08-04T09:19:57,42.805,6.029,CST-1368DR,8423,11781,15435,0.047,551
2019-08-04T09:22:59,42.805,6.029,CST-1368DR,8423,11783,15437,0.046,550
2019-08-04T09:26:01,42.805,6.029,CST-1368DR,8423,11781,15435,0.047,551
2019-08-04T09:29:03,42.805,6.029,CST-1368DR,8423,11781,15435,0.047,551
2019-08-04T09:32:05,42.805,6.029,CST-1368DR,8423,11780,15433,0.047,551
2019-08-04T09:35:06,42.805,6.029,CST-1368DR,8423,11781,15434,0.047,551
2019-08-04T09:38:08,42.805,6.029,CST-1368DR,8423,11774,15426,0.049,551
2019-08-04T09:41:10,42.805,6.029,CST-1368DR,8423,11780,15434,0.047,551
2019-08-04T09:44:11,42.805,6.029,CST-1368DR,8423,11779,15433,0.047,551
2019-08-04T09:47:13,42.805,6.029,CST-1368DR,8423,11780,15434,0.047,551
2019-08-04T09:50:15,42.805,6.029,CST-1368DR,8423,11779,15432,0.047,551
2019-08-04T09:53:16,42.805,6.029,CST-1368DR,8423,11782,15436,0.046,551
2019-08-04T09:56:18,42.805,6.029,CST-1368DR,8423,11782,15437,0.046,551
2019-08-04T09:59:19,42.805,6.029,CST-1368DR,8423,11781,15435,0.047,551
2019-08-04T10:02:21,42.805,6.029,CST-1368DR,8423,11779,15432,0.047,551
2019-08-04T10:05:23,42.805,6.029,CST-1368DR,8423,11780,15433,0.047,551
2019-08-04T10:08:24,42.805,6.029,CST-1368DR,8423,11780,15433,0.047,551
2019-08-04T10:11:26,42.805,6.029,CST-1368DR,8423,11779,15432,0.047,551
2019-08-04T10:14:28,42.805,6.029,CST-1368DR,8423,11779,15432,0.047,551
2019-08-04T10:17:29,42.805,6.029,CST-1368DR,8422,11695,15324,0.076,551
2019-08-04T10:20:31,42.805,6.029,CST-1368DR,8423,11781,15435,0.047,551
2019-08-04T10:23:33,42.805,6.029,CST-1368DR,8422,11781,15437,0.046,551
2019-08-04T10:26:34,42.805,6.029,CST-1368DR,8423,11780,15433,0.047,551
2019-08-04T10:29:36,42.805,6.029,CST-1368DR,8423,11780,15433,0.047,551
2019-08-04T10:32:37,42.805,6.029,CST-1368DR,8422,11776,15431,0.048,551
2019-08-04T10:35:39,42.805,6.029,CST-1368DR,8422,11780,15435,0.047,551
2019-08-04T10:38:41,42.805,6.029,CST-1368DR,8422,11778,15432,0.047,551
2019-08-04T10:41:42,42.805,6.029,CST-1368DR,8422,11779,15434,0.047,550
2019-08-04T10:44:44,42.805,6.029,CST-1368DR,8422,11780,15435,0.047,551
2019-08-04T10:47:46,42.805,6.029,CST-1368DR,8422,11779,15434,0.047,551
2019-08-04T10:50:47,42.805,6.029,CST-1368DR,8422,11776,15430,0.048,551
2019-08-04T10:53:49,42.805,6.029,CST-1368DR,8422,11781,15436,0.046,551
2019-08-04T10:56:51,42.805,6.029,CST-1368DR,8422,11778,15433,0.047,551
2019-08-04T10:59:52,42.805,6.029,CST-1368DR,8422,11781,15436,0.046,551
2019-08-04T11:02:54,42.805,6.029,CST-1368DR,8422,11781,15437,0.046,551
2019-08-04T11:05:56,42.805,6.029,CST-1368DR,8422,11778,15433,0.047,551
2019-08-04T11:08:57,42.805,6.029,CST-1368DR,8422,11780,15435,0.047,551
2019-08-04T11:11:59,42.805,6.029,CST-1368DR,8422,11775,15428,0.048,551
2019-08-04T11:15:01,42.805,6.029,CST-1368DR,8422,11776,15430,0.048,551
2019-08-04T11:18:02,42.805,6.029,CST-1368DR,8422,11779,15434,0.047,551
2019-08-04T11:21:04,42.805,6.029,CST-1368DR,8422,11780,15436,0.046,551
2019-08-04T11:24:05,42.805,6.029,CST-1368DR,8422,11780,15435,0.047,551
2019-08-04T11:27:07,42.805,6.029,CST-1368DR,8422,11765,15415,0.052,551
2019-08-04T11:30:09,42.805,6.029,CST-1368DR,8422,11776,15430,0.048,550
2019-08-04T11:33:10,42.805,6.029,CST-1368DR,8422,11779,15434,0.047,551
2019-08-04T11:36:12,42.805,6.029,CST-1368DR,8422,11774,15428,0.048,551
2019-08-04T11:39:14,42.805,6.029,CST-1368DR,8422,11777,15431,0.048,551
2019-08-04T11:42:15,42.805,6.029,CST-1368DR,8422,11778,15432,0.047,551
2019-08-04T11:45:17,42.805,6.029,CST-1368DR,8422,11778,15433,0.047,551
2019-08-04T11:48:19,42.805,6.029,CST-1368DR,8422,11776,15430,0.048,551
2019-08-04T11:51:20,42.805,6.029,CST-1368DR,8422,11776,15431,0.048,551
2019-08-04T11:54:22,42.805,6.029,CST-1368DR,8422,11779,15434,0.047,551
2019-08-04T11:57:24,42.805,6.029,CST-1368DR,8422,11777,15431,0.048,550
2019-08-04T12:00:25,42.805,6.029,CST-1368DR,8422,11780,15435,0.047,551
2019-08-04T12:03:27,42.805,6.029,CST-1368DR,8422,11779,15433,0.047,551
2019-08-04T12:06:29,42.805,6.029,CST-1368DR,8422,11776,15430,0.048,551
2019-08-04T12:09:30,42.805,6.029,CST-1368DR,8422,11769,15421,0.050,551
2019-08-04T12:12:32,42.805,6.029,CST-1368DR,8422,11770,15422,0.050,551
2019-08-04T12:15:34,42.805,6.029,CST-1368DR,8422,11778,15433,0.047,550
2019-08-04T12:18:35,42.805,6.029,CST-1368DR,8422,11777,15431,0.048,551
2019-08-04T12:21:37,42.805,6.029,CST-1368DR,8422,11776,15430,0.048,551
2019-08-04T12:24:39,42.805,6.029,CST-1368DR,8422,11779,15434,0.047,551
2019-08-04T12:27:40,42.805,6.029,CST-1368DR,8422,11777,15432,0.047,551
2019-08-04T12:30:42,42.805,6.029,CST-1368DR,8422,11778,15432,0.047,551
2019-08-04T12:33:44,42.805,6.029,CST-1368DR,8422,11779,15434,0.047,551
2019-08-04T12:36:45,42.805,6.029,CST-1368DR,8422,11778,15432,0.047,551
2019-08-04T12:39:47,42.805,6.029,CST-1368DR,8422,11776,15431,0.048,551
2019-08-04T12:42:49,42.805,6.029,CST-1368DR,8422,11780,15435,0.047,551
2019-08-04T12:45:50,42.805,6.029,CST-1368DR,8422,11778,15433,0.047,551
2019-08-04T12:48:52,42.805,6.029,CST-1368DR,8422,11777,15432,0.047,551
2019-08-04T12:51:53,42.805,6.029,CST-1368DR,8422,11778,15433,0.047,551
2019-08-04T12:54:55,42.805,6.029,CST-1368DR,8421,11777,15433,0.047,551
2019-08-04T12:57:57,42.805,6.029,CST-1368DR,8422,11773,15427,0.049,551
2019-08-04T13:00:58,42.805,6.029,CST-1368DR,8422,11777,15431,0.048,551
2019-08-04T13:04:00,42.805,6.029,CST-1368DR,8422,11779,15434,0.047,551
2019-08-04T13:07:02,42.805,6.029,CST-1368DR,8422,11777,15431,0.048,551
2019-08-04T13:10:03,42.805,6.029,CST-1368DR,8422,11773,15426,0.049,551
2019-08-04T13:13:05,42.805,6.029,CST-1368DR,8422,11778,15433,0.047,551
2019-08-04T13:16:07,42.805,6.029,CST-1368DR,8422,11774,15428,0.048,551
2019-08-04T13:19:08,42.805,6.029,CST-1368DR,8422,11778,15432,0.047,551
2019-08-04T13:22:10,42.805,6.029,CST-1368DR,8422,11778,15433,0.047,551
2019-08-04T13:25:12,42.805,6.029,CST-1368DR,8422,11764,15415,0.052,551
2019-08-04T13:28:13,42.805,6.029,CST-1368DR,8421,11770,15423,0.050,551
2019-08-04T13:31:15,42.805,6.029,CST-1368DR,8421,11777,15433,0.047,551
2019-08-04T13:34:17,42.805,6.029,CST-1368DR,8421,11777,15433,0.047,551
2019-08-04T13:37:18,42.805,6.029,CST-1368DR,8421,11776,15431,0.048,551
2019-08-04T13:40:20,42.805,6.029,CST-1368DR,8421,11777,15433,0.047,551
2019-08-04T13:43:21,42.805,6.029,CST-1368DR,8421,11778,15434,0.047,551
2019-08-04T13:46:23,42.805,6.029,CST-1368DR,8421,11776,15432,0.047,551
2019-08-04T13:49:25,42.805,6.029,CST-1368DR,8421,11776,15432,0.047,551
2019-08-04T13:52:27,42.805,6.029,CST-1368DR,8421,11774,15429,0.048,551
2019-08-04T13:55:28,42.805,6.029,CST-1368DR,8421,11777,15433,0.047,551
2019-08-04T13:58:30,42.805,6.029,CST-1368DR,8421,11774,15429,0.048,551
2019-08-04T14:01:31,42.805,6.029,CST-1368DR,8421,11778,15434,0.047,551
2019-08-04T14:04:33,42.805,6.029,CST-1368DR,8421,11778,15434,0.047,551
2019-08-04T14:07:35,42.805,6.029,CST-1368DR,8421,11777,15433,0.047,551
2019-08-04T14:10:36,42.805,6.029,CST-1368DR,8421,11778,15434,0.047,551
2019-08-04T14:13:38,42.805,6.029,CST-1368DR,8421,11778,15435,0.047,551
2019-08-04T14:16:40,42.805,6.029,CST-1368DR,8421,11778,15434,0.047,551
2019-08-04T14:19:41,42.805,6.029,CST-1368DR,8421,11777,15433,0.047,551
2019-08-04T14:22:43,42.805,6.029,CST-1368DR,8421,11778,15434,0.047,551
2019-08-04T14:25:45,42.805,6.029,CST-1368DR,8421,11776,15431,0.048,551
2019-08-04T14:28:47,42.805,6.029,CST-1368DR,8421,11777,15433,0.047,551
2019-08-04T14:31:49,42.805,6.029,CST-1368DR,8421,11777,15433,0.047,551
2019-08-04T14:34:51,42.805,6.029,CST-1368DR,8421,11778,15435,0.047,551
2019-08-04T14:37:52,42.805,6.029,CST-1368DR,8421,11777,15433,0.047,551
2019-08-04T14:40:54,42.805,6.029,CST-1368DR,8421,11777,15433,0.047,551
2019-08-04T14:43:55,42.805,6.029,CST-1368DR,8421,11776,15432,0.047,551
2019-08-04T14:46:57,42.805,6.029,CST-1368DR,8421,11779,15436,0.046,551
2019-08-04T14:49:59,42.805,6.029,CST-1368DR,8421,11778,15435,0.047,551
2019-08-04T14:53:00,42.805,6.029,CST-1368DR,8421,11777,15433,0.047,551
2019-08-04T14:56:02,42.805,6.029,CST-1368DR,8421,11777,15433,0.047,551
2019-08-04T14:59:04,42.805,6.029,CST-1368DR,8421,11774,15429,0.048,551
2019-08-04T15:02:05,42.805,6.029,CST-1368DR,8421,11777,15433,0.047,551
2019-08-04T15:05:07,42.805,6.029,CST-1368DR,8420,11776,15433,0.047,551
2019-08-04T15:08:09,42.805,6.029,CST-1368DR,8420,11779,15437,0.046,551
2019-08-04T15:11:10,42.805,6.029,CST-1368DR,8420,11778,15436,0.046,551
2019-08-04T15:14:12,42.805,6.029,CST-1368DR,8420,11779,15437,0.046,551
2019-08-04T15:17:14,42.805,6.029,CST-1368DR,8420,11774,15431,0.048,551
2019-08-04T15:20:15,42.805,6.029,CST-1368DR,8420,11779,15437,0.046,551
2019-08-04T15:23:17,42.805,6.029,CST-1368DR,8420,11778,15437,0.046,551
2019-08-04T15:26:19,42.805,6.029,CST-1368DR,8420,11776,15434,0.047,551
2019-08-04T15:29:20,42.805,6.029,CST-1368DR,8420,11775,15432,0.047,551
2019-08-04T15:32:22,42.805,6.029,CST-1368DR,8420,11773,15429,0.048,551
2019-08-04T15:35:24,42.805,6.029,CST-1368DR,8420,11775,15433,0.047,551
2019-08-04T15:38:25,42.805,6.029,CST-1368DR,8420,11777,15435,0.047,550
2019-08-04T15:41:27,42.805,6.029,CST-1368DR,8420,11775,15432,0.047,551
2019-08-04T15:44:29,42.805,6.029,CST-1368DR,8420,11777,15435,0.047,551
2019-08-04T15:47:30,42.805,6.029,CST-1368DR,8420,11779,15437,0.046,551
2019-08-04T15:50:32,42.805,6.029,CST-1368DR,8420,11779,15437,0.046,551
2019-08-04T15:53:34,42.805,6.029,CST-1368DR,8420,11777,15435,0.047,551
2019-08-04T15:56:35,42.805,6.029,CST-1368DR,8420,11777,15435,0.047,551
2019-08-04T15:59:37,42.805,6.029,CST-1368DR,8420,11778,15436,0.046,551
2019-08-04T16:02:39,42.805,6.029,CST-1368DR,8420,11779,15437,0.046,551
2019-08-04T16:05:40,42.805,6.029,CST-1368DR,8420,11779,15437,0.046,551
2019-08-04T16:08:42,42.805,6.029,CST-1368DR,8420,11778,15436,0.046,551
2019-08-04T16:11:44,42.805,6.029,CST-1368DR,8420,11780,15438,0.046,551
2019-08-04T16:14:45,42.805,6.029,CST-1368DR,8420,11772,15428,0.048,551
2019-08-04T16:17:47,42.805,6.029,CST-1368DR,8420,11776,15433,0.047,551
2019-08-04T16:20:49,42.805,6.029,CST-1368DR,8420,11779,15437,0.046,551
2019-08-04T16:23:50,42.805,6.029,CST-1368DR,8420,11779,15437,0.046,551
2019-08-04T16:26:52,42.805,6.029,CST-1368DR,8420,11764,15418,0.051,551
2019-08-04T16:29:54,42.805,6.029,CST-1368DR,8420,11776,15434,0.047,550
2019-08-04T16:32:56,42.805,6.029,CST-1368DR,8420,11776,15434,0.047,551
2019-08-04T16:35:57,42.805,6.029,CST-1368DR,8420,11779,15437,0.046,551
2019-08-04T16:38:59,42.805,6.029,CST-1368DR,8420,11779,15437,0.046,551
2019-08-04T16:42:01,42.805,6.029,CST-1368DR,8420,11777,15435,0.047,551
2019-08-04T16:45:03,42.805,6.029,CST-1368DR,8420,11775,15432,0.047,551
2019-08-04T16:48:04,42.805,6.029,CST-1368DR,8419,11759,15412,0.053,551